{"data":{"norad_id":40118,"epoch":"2026-05-25T04:52:32.632608Z","epoch_age_seconds":60610,"freshness":"FRESH","line1":"1 40118U 14049A   26145.20315547  .00000644  00000+0  90288-4 0  9991","line2":"2 40118  98.0115 209.4312 0006314 316.5966  43.4748 14.80870499635836","mean_motion":14.80870499,"eccentricity":0.0006314,"inclination_deg":98.0115,"raan_deg":209.4312,"arg_perigee_deg":316.5966,"mean_anomaly_deg":43.4748,"bstar":9.0288e-5,"rev_number":63583,"period_min":97.240103099657,"perigee_km":622.15496165946,"apogee_km":631.00051543129,"semimajor_km":7004.7147385454,"source":"CELESTRAK","updated_at":"2026-05-25T13:38:12.786134Z"}}